sat.trackr.live / text

‹ back to catalog

STARLINK-4717

NORAD 53705 · 2022-107F

PAYLOAD ACTIVE UNKNOWN

§ Identity

Operator
Country
US
Launch date
2022-09-05
Launch site
AFETR
Launch vehicle
Mass (kg)
RCS (m²)

Purposes: comms

External: N2YO · Heavens-Above · Gunter

§ Orbital elements

Epoch: 2026-09-20T21:30:09.764640Z

Period
93.79 min
Inclination
53.1608°
Eccentricity
0.0000825
Mean motion
15.35406347 rev/d
Perigee alt
459.1 km
Apogee alt
460.3 km
Semi-major
6,837.9 km
B*
4.8411e-5
RAAN
83.6261°
Arg perigee
90.7024°
Mean anomaly
269.4074°
Rev number
22,437

§ Raw data

STARLINK-47171 53705U 22107F   26263.89594635  .00001309  00000+0  48411-4 0  99942 53705  53.1608  83.6261 0000825  90.7024 269.4074 15.35406347224376

JSON: /api/v1/satellites/53705 · /tle

For live sub-satellite position, see the globe view (requires WebGL).

§ Visibility from observer

Set your observer location to see the next 7 days of passes ≥ 10°. The values pass through the URL so the page stays shareable.

No JS? Fill the form by hand. The geolocation button needs JavaScript.